GW3691 Weather Reports


Display with metric or nautical units.
time (UTC)temp
F
wind
direction
speed
MPH
gust
MPH
rain 1hr
in
rain 24hr
in
rain mn
in
humidity
%
barometer
mb
20260505212946 79 158 0.0 1.0 0.00 0.00 0.00 51 1019.6
20260505212443 80 115 3.0 3.0 0.00 0.00 0.00 49 1019.7
20260505211939 81 142 1.0 2.0 0.00 0.00 0.00 47 1019.5
20260505211437 82 174 0.0 1.0 0.00 0.00 0.00 48 1019.6
20260505210933 80 138 2.0 3.0 0.00 0.00 0.00 50 1019.6
20260505210430 80 91 1.0 2.0 0.00 0.00 0.00 50 1019.8
20260505205927 80 140 0.0 1.0 0.00 0.00 0.00 52 1019.8
20260505205426 81 138 1.0 2.0 0.00 0.00 0.00 53 1019.6
20260505204922 82 171 0.0 1.0 0.00 0.00 0.00 53 1019.7
20260505204420 81 116 2.0 3.0 0.00 0.00 0.00 53 1019.6
20260505203917 81 115 1.0 2.0 0.00 0.00 0.00 52 1019.6
20260505203413 81 92 5.0 7.0 0.00 0.00 0.00 49 1019.8
20260505202910 80 126 2.0 3.0 0.00 0.00 0.00 52 1019.7
20260505202406 82 117 1.0 2.0 0.00 0.00 0.00 50 1019.6
20260505201902 82 122 1.0 1.0 0.00 0.00 0.00 51 1019.8
20260505201400 81 148 0.0 0.0 0.00 0.00 0.00 52 1019.8
20260505200858 81 85 5.0 7.0 0.00 0.00 0.00 53 1019.7
20260505200354 82 77 0.0 0.0 0.00 0.00 0.00 55 1019.8
20260505195850 82 154 1.0 2.0 0.00 0.00 0.00 53 1019.9
20260505195348 80 168 0.0 0.0 0.00 0.00 0.00 55 1019.7
20260505194844 80 78 4.0 7.0 0.00 0.00 0.00 54 1019.9
20260505194342 82 93 3.0 5.0 0.00 0.00 0.00 50 1020.1
20260505193837 82 65 2.0 5.0 0.00 0.00 0.00 50 1020.4
20260505193335 81 148 1.0 1.0 0.00 0.00 0.00 53 1020.2
20260505192833 82 120 4.0 8.0 0.00 0.00 0.00 50 1020.3
20260505192331 81 119 1.0 1.0 0.00 0.00 0.00 54 1020.3
20260505191828 83 124 1.0 2.0 0.00 0.00 0.00 51 1020.3
20260505191327 82 172 0.0 1.0 0.00 0.00 0.00 51 1020.5
20260505190823 81 139 0.0 0.0 0.00 0.00 0.00 51 1020.3
20260505190318 82 188 3.0 6.0 0.00 0.00 0.00 50 1020.3
20260505185814 82 141 1.0 1.0 0.00 0.00 0.00 49 1020.4
20260505185311 82 127 2.0 3.0 0.00 0.00 0.00 52 1020.5
20260505184807 82 169 1.0 1.0 0.00 0.00 0.00 54 1020.6
20260505184304 83 101 0.0 2.0 0.00 0.00 0.00 52 1020.8
20260505183801 81 158 1.0 1.0 0.00 0.00 0.00 54 1020.7
20260505183258 82 171 0.0 0.0 0.00 0.00 0.00 53 1020.7
20260505182755 81 160 0.0 0.0 0.00 0.00 0.00 54 1020.6
20260505182251 82 82 6.0 9.0 0.00 0.00 0.00 51 1020.4
20260505181748 83 71 2.0 6.0 0.00 0.00 0.00 54 1020.7
20260505181246 83 94 0.0 0.0 0.00 0.00 0.00 56 1020.6
20260505180742 83 126 1.0 2.0 0.00 0.00 0.00 53 1020.8
20260505180238 82 65 0.0 1.0 0.00 0.00 0.00 55 1020.8
20260505175735 81 117 4.0 6.0 0.00 0.00 0.00 53 1020.8
20260505175232 82 88 2.0 2.0 0.00 0.00 0.00 53 1020.9
20260505174728 81 100 2.0 3.0 0.00 0.00 0.00 57 1021.0
20260505174225 82 132 3.0 3.0 0.00 0.00 0.00 54 1020.9
20260505173721 82 171 0.0 0.0 0.00 0.00 0.00 56 1020.8
20260505173218 82 125 2.0 5.0 0.00 0.00 0.00 52 1021.0
20260505172715 83 348 0.0 1.0 0.00 0.00 0.00 54 1021.0
20260505172212 83 129 0.0 0.0 0.00 0.00 0.00 51 1021.1
20260505171707 82 83 0.0 0.0 0.00 0.00 0.00 55 1021.1
20260505171204 81 56 1.0 3.0 0.00 0.00 0.00 57 1021.2
20260505170701 80 129 0.0 1.0 0.00 0.00 0.00 59 1020.9
20260505170158 81 124 1.0 2.0 0.00 0.00 0.00 56 1021.1
20260505165657 80 140 0.0 0.0 0.00 0.00 0.00 60 1021.3
20260505165154 80 138 0.0 0.0 0.00 0.00 0.00 55 1021.2
20260505164649 79 142 0.0 0.0 0.00 0.00 0.00 58 1021.2
20260505164147 81 142 0.0 0.0 0.00 0.00 0.00 56 1021.4
20260505163645 81 144 0.0 0.0 0.00 0.00 0.00 57 1021.5
20260505163143 80 168 0.0 0.0 0.00 0.00 0.00 58 1021.7
20260505162640 80 140 1.0 1.0 0.00 0.00 0.00 56 1021.5
20260505162137 80 16 1.0 3.0 0.00 0.00 0.00 56 1021.4
20260505161634 81 107 3.0 3.0 0.00 0.00 0.00 54 1021.2
20260505161131 80 16 0.0 0.0 0.00 0.00 0.00 55 1021.5
20260505160629 80 95 3.0 6.0 0.00 0.00 0.00 56 1021.3
20260505160126 81 157 0.0 0.0 0.00 0.00 0.00 56 1021.2
20260505153106 82 159 0.0 0.0 0.00 0.00 0.00 57 1021.2
20260505152602 81 89 0.0 1.0 0.00 0.00 0.00 59 1021.0
20260505152058 80 158 0.0 0.0 0.00 0.00 0.00 59 1021.1
20260505151553 80 154 0.0 1.0 0.00 0.00 0.00 59 1021.4
20260505151051 80 155 0.0 0.0 0.00 0.00 0.00 59 1021.0
20260505150547 80 165 0.0 0.0 0.00 0.00 0.00 58 1021.2
20260505140513 79 147 0.0 0.0 0.00 0.00 0.00 58 1020.7
20260505124932 75 130 0.0 0.0 0.00 0.00 0.00 74 1020.5
20260505124429 73 143 0.0 0.0 0.00 0.00 0.00 76 1020.5
20260505123925 71 159 0.0 0.0 0.00 0.00 0.00 78 1020.4
20260505123421 69 159 0.0 0.0 0.00 0.00 0.00 82 1020.4
20260505122917 68 159 0.0 0.0 0.00 0.00 0.00 84 1020.7
20260505122415 67 159 0.0 0.0 0.00 0.00 0.00 85 1020.4
20260505121911 66 159 0.0 0.0 0.00 0.00 0.00 88 1020.4
20260505121408 66 160 0.0 0.0 0.00 0.00 0.00 91 1020.2
20260505120904 65 160 0.0 0.0 0.00 0.00 0.00 93 1020.3
20260505120401 63 160 0.0 0.0 0.00 0.00 0.00 94 1020.1
20260505115859 62 161 0.0 0.0 0.00 0.00 0.00 95 1020.2
20260505115357 60 162 0.0 0.0 0.00 0.00 0.00 95 1020.4
20260505114855 59 162 0.0 0.0 0.00 0.00 0.00 96 1020.4
20260505114351 59 163 0.0 0.0 0.00 0.00 0.00 96 1020.3
20260505113847 58 161 0.0 0.0 0.00 0.00 0.00 96 1020.3
20260505113344 58 162 0.0 0.0 0.00 0.00 0.00 96 1020.2
20260505112839 57 161 0.0 0.0 0.00 0.00 0.00 96 1020.2
20260505112337 57 158 0.0 0.0 0.00 0.00 0.00 96 1019.8
20260505111833 57 149 0.0 0.0 0.00 0.00 0.00 96 1019.8
20260505111328 56 148 0.0 0.0 0.00 0.00 0.00 96 1019.9
20260505110825 56 149 0.0 0.0 0.00 0.00 0.00 96 1019.8
20260505110322 56 149 0.0 0.0 0.00 0.00 0.00 96 1019.8
20260505101756 56 148 0.0 0.0 0.00 0.00 0.00 95 1019.5
20260505101252 56 148 0.0 0.0 0.00 0.00 0.00 95 1019.6
20260505100748 56 148 0.0 0.0 0.00 0.00 0.00 95 1019.4
20260505100245 56 148 0.0 0.0 0.00 0.00 0.00 95 1019.4
20260505095741 56 148 0.0 0.0 0.00 0.00 0.00 95 1019.2
20260505095239 56 148 0.0 0.0 0.00 0.00 0.00 95 1019.2
20260505094734 56 148 0.0 0.0 0.00 0.00 0.00 95 1019.3
20260505094231 57 148 0.0 0.0 0.00 0.00 0.00 95 1019.1
20260505093727 56 148 0.0 0.0 0.00 0.00 0.00 95 1019.1
20260505093225 56 149 0.0 0.0 0.00 0.00 0.00 95 1019.3
20260505092721 56 148 0.0 0.0 0.00 0.00 0.00 95 1019.0
20260505092220 56 148 0.0 0.0 0.00 0.00 0.00 95 1019.1
20260505091717 56 149 0.0 0.0 0.00 0.00 0.00 95 1019.1
20260505091215 56 149 0.0 0.0 0.00 0.00 0.00 95 1019.0
20260505090712 56 149 0.0 0.0 0.00 0.00 0.00 95 1019.2
20260505090210 56 149 0.0 0.0 0.00 0.00 0.00 95 1019.0
20260505085708 56 149 0.0 0.0 0.00 0.00 0.00 95 1019.0
20260505085206 56 149 0.0 0.0 0.00 0.00 0.00 95 1019.4
20260505084703 57 149 0.0 0.0 0.00 0.00 0.00 95 1018.9
20260505084202 57 149 0.0 0.0 0.00 0.00 0.00 95 1019.3
20260505083658 57 149 0.0 0.0 0.00 0.00 0.00 95 1019.1
20260505083155 57 149 0.0 0.0 0.00 0.00 0.00 95 1019.0
20260505082651 57 149 0.0 0.0 0.00 0.00 0.00 95 1019.0
20260505082148 57 149 0.0 0.0 0.00 0.00 0.00 95 1018.9
20260505081644 57 149 0.0 0.0 0.00 0.00 0.00 95 1019.0
20260505081142 57 149 0.0 0.0 0.00 0.00 0.00 95 1019.1
20260505080638 57 149 0.0 0.0 0.00 0.00 0.00 94 1019.0
20260505080134 57 149 0.0 0.0 0.00 0.00 0.00 94 1019.1
20260505075631 57 149 0.0 0.0 0.00 0.00 0.00 94 1018.9
20260505075127 57 149 0.0 0.0 0.00 0.00 0.00 94 1019.0
20260505074624 58 149 0.0 0.0 0.00 0.00 0.00 94 1018.9
20260505074121 58 149 0.0 0.0 0.00 0.00 0.00 94 1019.2
20260505073619 58 149 0.0 0.0 0.00 0.00 0.00 94 1019.2
20260505073117 58 149 0.0 0.0 0.00 0.00 0.00 94 1019.3
20260505072612 58 149 0.0 0.0 0.00 0.00 0.00 94 1019.2
20260505072109 58 149 0.0 0.0 0.00 0.00 0.00 94 1019.3
20260505071604 58 149 0.0 0.0 0.00 0.00 0.00 94 1019.4
20260505071103 58 149 0.0 0.0 0.00 0.00 0.00 94 1019.2
20260505070600 58 149 0.0 0.0 0.00 0.00 0.00 94 1019.0
20260505070056 58 149 0.0 0.0 0.00 0.00 0.00 93 1019.2
20260505065552 58 149 0.0 0.0 0.00 0.00 0.00 93 1019.2
20260505065049 59 149 0.0 0.0 0.00 0.00 0.00 93 1019.2
20260505064545 58 148 0.0 0.0 0.00 0.00 0.00 93 1019.2
20260505064044 59 148 0.0 0.0 0.00 0.00 0.00 93 1019.3
20260505063541 59 148 0.0 0.0 0.00 0.00 0.00 93 1019.4
20260505063037 59 148 0.0 0.0 0.00 0.00 0.00 93 1019.6
20260505062533 59 148 0.0 0.0 0.00 0.00 0.00 93 1019.5
20260505062031 59 148 0.0 0.0 0.00 0.00 0.00 93 1019.4
20260505061528 59 148 0.0 0.0 0.00 0.00 0.00 93 1019.3
20260505061026 59 148 0.0 0.0 0.00 0.00 0.00 93 1019.3
20260505060523 59 148 0.0 0.0 0.00 0.00 0.00 92 1019.3
20260505060020 59 148 0.0 0.0 0.00 0.00 0.00 92 1019.6
20260505055515 59 148 0.0 0.0 0.00 0.00 0.00 92 1019.5
20260505055012 59 148 0.0 0.0 0.00 0.00 0.00 92 1019.6
20260505054509 59 148 0.0 0.0 0.00 0.00 0.00 92 1019.6
20260505054008 59 148 0.0 0.0 0.00 0.00 0.00 92 1019.8
20260505053504 59 148 0.0 0.0 0.00 0.00 0.00 92 1019.7
20260505053000 59 148 0.0 0.0 0.00 0.00 0.00 91 1020.1
20260505052458 60 148 0.0 0.0 0.00 0.00 0.00 91 1020.1
20260505051955 60 148 0.0 0.0 0.00 0.00 0.00 91 1020.0
20260505051452 60 148 0.0 0.0 0.00 0.00 0.00 91 1020.1
20260505050950 60 148 0.0 0.0 0.00 0.00 0.00 91 1020.2
20260505050448 60 148 0.0 0.0 0.00 0.00 0.00 91 1020.3
20260505041416 61 148 0.0 0.0 0.00 0.00 0.00 89 1020.3
20260505040913 61 148 0.0 0.0 0.00 0.00 0.00 89 1020.5
20260505040410 61 148 0.0 0.0 0.00 0.00 0.00 88 1020.5
20260505035907 61 148 0.0 0.0 0.00 0.00 0.00 88 1020.5
20260505035403 61 148 0.0 0.0 0.00 0.00 0.00 88 1020.5
20260505034900 61 148 0.0 0.0 0.00 0.00 0.00 88 1020.5
20260505034357 62 148 0.0 0.0 0.00 0.00 0.00 87 1020.1
20260505033854 62 148 0.0 0.0 0.00 0.00 0.00 87 1020.6
20260505033350 62 148 0.0 0.0 0.00 0.00 0.00 87 1020.5
20260505032849 62 148 0.0 0.0 0.00 0.00 0.00 86 1020.7
20260505032345 62 148 0.0 0.0 0.00 0.00 0.00 86 1020.6
20260505031842 62 148 0.0 0.0 0.00 0.00 0.00 86 1020.7
20260505031339 62 148 0.0 0.0 0.00 0.00 0.00 85 1020.5
20260505030836 63 148 0.0 0.0 0.00 0.00 0.00 85 1020.7
20260505030332 63 148 0.0 0.0 0.00 0.00 0.00 85 1020.9
20260505025827 63 148 0.0 0.0 0.00 0.00 0.00 85 1020.6
20260505025325 63 148 0.0 0.0 0.00 0.00 0.00 84 1020.5
20260505024824 63 148 0.0 0.0 0.00 0.00 0.00 84 1020.7
20260505024321 63 148 0.0 0.0 0.00 0.00 0.00 83 1020.8
20260505023818 64 148 0.0 0.0 0.00 0.00 0.00 83 1020.8
20260505023315 64 148 0.0 0.0 0.00 0.00 0.00 83 1020.8
20260505022812 63 148 0.0 0.0 0.00 0.00 0.00 82 1020.6
20260505022309 64 148 0.0 0.0 0.00 0.00 0.00 82 1020.7
20260505021806 64 148 0.0 0.0 0.00 0.00 0.00 82 1020.8
20260505021303 63 148 0.0 0.0 0.00 0.00 0.00 82 1020.9
20260505020759 64 148 0.0 0.0 0.00 0.00 0.00 82 1020.8
20260505020254 64 148 0.0 0.0 0.00 0.00 0.00 81 1020.8
20260505015751 64 148 0.0 0.0 0.00 0.00 0.00 81 1020.7
20260505015248 64 147 0.0 0.0 0.00 0.00 0.00 81 1020.9
20260505014745 64 149 0.0 0.0 0.00 0.00 0.00 81 1020.8
20260505014243 64 149 0.0 0.0 0.00 0.00 0.00 80 1020.6
20260505013739 64 149 0.0 0.0 0.00 0.00 0.00 79 1020.7
20260505013237 65 149 0.0 0.0 0.00 0.00 0.00 78 1020.7
20260505012734 65 149 0.0 0.0 0.00 0.00 0.00 78 1020.5
20260505012231 65 149 0.0 0.0 0.00 0.00 0.00 77 1020.5
20260505011727 65 149 0.0 0.0 0.00 0.00 0.00 77 1020.4
20260505011225 66 148 0.0 0.0 0.00 0.00 0.00 76 1020.3
20260505010720 66 148 0.0 0.0 0.00 0.00 0.00 75 1020.3
20260505010217 66 149 0.0 0.0 0.00 0.00 0.00 75 1020.5
20260505005713 66 150 0.0 0.0 0.00 0.00 0.00 75 1020.3
20260505005210 66 149 0.0 0.0 0.00 0.00 0.00 74 1020.2
20260505004707 66 150 0.0 0.0 0.00 0.00 0.00 74 1020.5
20260505004204 66 150 0.0 0.0 0.00 0.00 0.00 73 1020.4
20260505003701 67 150 0.0 0.0 0.00 0.00 0.00 73 1020.4
20260505003159 67 150 0.0 0.0 0.00 0.00 0.00 73 1020.4
20260505002655 68 150 0.0 0.0 0.00 0.00 0.00 73 1020.3
20260505002153 68 150 0.0 0.0 0.00 0.00 0.00 71 1020.2
20260505001649 69 150 0.0 0.0 0.00 0.00 0.00 70 1019.8
20260505001147 69 147 0.0 0.0 0.00 0.00 0.00 70 1019.9
20260505000644 70 134 0.0 0.0 0.00 0.00 0.00 69 1019.9
20260505000142 70 146 1.0 2.0 0.00 0.00 0.00 68 1019.6
20260504235638 70 145 0.0 0.0 0.00 0.00 0.00 68 1019.9
20260504235134 71 151 0.0 0.0 0.00 0.00 0.00 68 1019.6
20260504234632 71 153 0.0 0.0 0.00 0.00 0.00 67 1019.5
20260504234129 71 157 1.0 2.0 0.00 0.00 0.00 68 1019.6
20260504233625 72 79 1.0 2.0 0.00 0.00 0.00 66 1019.8
20260504233121 72 131 2.0 2.0 0.00 0.00 0.00 66 1019.5
20260504232619 72 117 2.0 2.0 0.00 0.00 0.00 65 1019.4
20260504232116 73 142 2.0 2.0 0.00 0.00 0.00 65 1019.4
20260504231612 73 159 0.0 1.0 0.00 0.00 0.00 64 1019.5
20260504231108 74 155 1.0 1.0 0.00 0.00 0.00 64 1019.3
20260504230604 74 1 2.0 6.0 0.00 0.00 0.00 62 1019.3
20260504230104 74 150 1.0 1.0 0.00 0.00 0.00 62 1019.5
20260504225601 74 165 1.0 1.0 0.00 0.00 0.00 62 1019.3
20260504225057 75 128 2.0 3.0 0.00 0.00 0.00 61 1019.7
20260504224554 75 120 1.0 2.0 0.00 0.00 0.00 61 1019.4
20260504224051 75 125 0.0 0.0 0.00 0.00 0.00 60 1020.1
20260504223548 76 102 0.0 1.0 0.00 0.00 0.00 60 1019.8
20260504223043 77 144 3.0 5.0 0.00 0.00 0.00 59 1019.8
20260504222541 76 167 0.0 1.0 0.00 0.00 0.00 60 1019.9
20260504222038 76 62 4.0 6.0 0.00 0.00 0.00 59 1019.8
20260504221535 76 128 1.0 1.0 0.00 0.00 0.00 60 1019.8
20260504221032 76 158 2.0 3.0 0.00 0.00 0.00 59 1019.7
20260504220529 76 69 1.0 1.0 0.00 0.00 0.00 58 1019.5
20260504220026 76 144 2.0 3.0 0.00 0.00 0.00 59 1019.9
20260504215522 76 167 1.0 1.0 0.00 0.00 0.00 59 1019.5
20260504215020 78 100 2.0 5.0 0.00 0.00 0.00 56 1019.9
20260504214516 78 120 1.0 2.0 0.00 0.00 0.00 58 1020.0
20260504214012 78 172 1.0 2.0 0.00 0.00 0.00 56 1019.9
20260504213508 77 154 1.0 1.0 0.00 0.00 0.00 60 1019.8